weather.gov     
National Weather Service

Weather Roundup
NWS Homepage
This page is being discontinued on March 12, 2014.
The same data is available at this site. Please update your bookmarks.
Thank you, and we apologize for the inconvenience.
Please send an email to SR-SRH.Webmaster@noaa.gov with any concerns.


Current Version
Previous Version:    01  02  03  04  05  06  07  08  09  10  11  12  13  14  15  16  17  18  19  20  21  22  23  24  25  26  27  28  29  30  
   31  32  33  34  35  36  37  38  39  40  41  42  43  44  45  46  47  48  49  50  51  52  53  54  55  56  57  58  59  60  
[Printable]
408
ASUS44 KCRP 221310
HRRCRP

SOUTH TEXAS REGIONAL WEATHER ROUNDUP
NATIONAL WEATHER SERVICE CORPUS CHRISTI TX
800 AM CDT FRI AUG 22 2014


TXZ229>244-221400-
...CORPUS CHRISTI AREA OBSERVATIONS...

CITY           SKY/WX    TMP DP  RH WIND       PRES   REMARKS
CORPUS CHRISTI MOSUNNY   79  77  94 S3        30.04R
NAS CORPUS CHR MOSUNNY   82  79  90 S9        30.03R HX  92
ROCKPORT       MOSUNNY   82  78  88 S5        30.04R HX  91
KINGSVILLE NAS SUNNY     80  79  96 S6        30.03R
ALICE          CLOUDY    80  77  90 S8        30.03R
FALFURRIAS       N/A     82  73  73 S5        30.03R
$$

...VICTORIA AREA OBSERVATIONS...

CITY           SKY/WX    TMP DP  RH WIND       PRES   REMARKS
VICTORIA       PTSUNNY   82  80  94 CALM      30.06R HX  94
BEEVILLE       FAIR      80  78  94 S6        30.05R
PLEASANTON     SUNNY     77  73  86 CALM      30.05S
SAN ANTONIO    MOSUNNY   79  73  82 S9        30.07S
$$

...LAREDO AREA OBSERVATIONS...

CITY           SKY/WX    TMP DP  RH WIND       PRES   REMARKS
LAREDO         CLEAR     80  72  76 SE9       30.03R
COTULLA        CLEAR     77  72  84 SE10      30.03R
DEL RIO        CLEAR     78  67  68 E13       30.02R
MCALLEN        SUNNY     78  75  90 SE8       30.04R
HEBBRONVILLE   SUNNY     77  74  91 SE9       30.04S
$$

...OTHER TEXAS OBSERVATIONS...

CITY           SKY/WX    TMP DP  RH WIND       PRES   REMARKS
BROWNSVILLE    SUNNY     77  76  96 SE5       30.05R
HOUSTON        MOSUNNY   79  77  94 CALM      30.08R
COL. STATION   SUNNY     79  76  90 S5        30.07S
AUSTIN         MOSUNNY   80  75  84 S7        30.06S
WACO           SUNNY     79  73  82 S10       30.07R
FORT WORTH     MOSUNNY   80  73  79 S15       30.04S
WICHITA FALLS  SUNNY     79  68  69 S10       30.01R
LUBBOCK        PTCLDY    76  61  59 S14       30.08R
EL PASO        LGT RAIN  65  62  90 N9        30.12F
$$

...MARINE OBSERVATIONS...

STATION/POSITION TIME  SKY/WX   TEMP    WIND        PRES    VSBY  WAVE   SWELL
                                AIR SEA DIR/SP/G                  HT/PER HT/PER
                 (UTC)          (F)     (DEG/KT/KT) (MB)    (MI)  (FT/S) (FT/S)
PORT ARANSAS     1300            81 82  170/  8/ 10 1017.8R
BUOY 90 E PORT A 1300            84 85  170/ 10/ 10 1018.1R         4/ 8   3/ 8
BUOY 45 SE BAFFI 1300            83 84  190/ 14/ 16 1016.7R         4/ 7   2/ 7
BUOY 200 E PT IS 1300            85 86  110/  8/ 10 1017.7R         2/ 6   2/ 6
BUOY 15 E GALVES NOT AVBL
$$




U.S. Dept. of Commerce
NOAA National Weather Service
1325 East West Highway
Silver Spring, MD 20910
E-mail: w-nws.webmaster@noaa.gov
Page last modified: May 16, 2007
NATIONAL WEATHER SERVICE: for Safety, for Work, for Fun - FOR LIFE